Hourly Data Report for August 18, 2020

OTTAWA INTL A
ONTARIO
Current Station Operator: NAVCAN

45°19'00.000" N
75°40'00.000" W
114.90 m
6106001
71628
YOW

Download Data

Hourly Data (August 2020)
Hourly Data Report for August 18, 2020
TIME
LST
Temp Definition
°C
Dew Point Definition
°C
Rel Hum Definition
%
Precip. Amount Definition
mm

Wind Dir Definition
10's deg

Wind Spd Definition
km/h
Visibility Definition
km
Stn Press Definition
kPa
Hmdx Definition


Wind Chill Definition


Weather Definition


00:00 15.5 14.2 92   23 7 24.1 99.54     LegendNANA
01:00 14.5 13.1 91   25 10 24.1 99.55     Mainly Clear
02:00 13.8 12.9 94   23 8 24.1 99.54     LegendNANA
03:00 13.8 13.3 97   23 4 24.1 99.52     LegendNANA
04:00 13.4 12.9 97   25 9 24.1 99.52     Mostly Cloudy
05:00 13.1 12.8 98   25 6 24.1 99.56     LegendNANA
06:00 14.3 13.9 98   26 8 24.1 99.57     LegendNANA
07:00 14.8 14.3 97   26 9 24.1 99.61     Mostly Cloudy
08:00 17.1 14.7 86   29 14 24.1 99.64     LegendNANA
09:00 19.1 14.7 75   28 10 24.1 99.67     LegendNANA
10:00 19.9 15.0 73   28 11 24.1 99.67     Mainly Clear
11:00 21.4 14.7 65   29 17 24.1 99.68 25   LegendNANA
12:00 21.8 13.9 60   29 18 24.1 99.63 25   LegendNANA
13:00 21.4 13.2 59   29 25 24.1 99.64     Mostly Cloudy
14:00 20.6 11.3 55   35 18 24.1 99.69     LegendNANA
15:00 22.2 11.0 49   29 24 24.1 99.67     LegendNANA
16:00 22.4 12.2 52   27 20 24.1 99.64 25   Mostly Cloudy
17:00 20.9 11.7 55   31 19 24.1 99.65     LegendNANA
18:00 20.2 12.0 59   31 17 24.1 99.69     LegendNANA
19:00 18.7 10.8 60   33 21 24.1 99.76     Mostly Cloudy
20:00 17.7 10.2 61   33 15 24.1 99.85     LegendNANA
21:00 15.5 9.8 69   28 6 24.1 99.89     LegendNANA
22:00 14.6 11.3 80   28 7 24.1 99.89     Mostly Cloudy
23:00 14.4 11.2 81   26 6 24.1 99.90     LegendNANA

Notes on Data Quality.

Legend

  • E = Estimated
  • M = Missing
  • NA = Not Available*
  • [empty] = Indicates an unobserved value
Date modified: